FW8886 Weather Reports


time (UTC)temp
F
wind
direction
speed
knots
gust
knots
rain 1hr
in
rain 24hr
in
rain mn
in
humidity
%
barometer
mb
20260507105026 32 0 0.0 0.0 0.00 0.30 0.00 94 1012.5
20260507104544 32 0 0.0 0.0 0.00 0.30 0.00 94 1012.5
20260507104029 32 0 0.0 0.9 0.00 0.30 0.00 94 1012.4
20260507103526 32 0 0.0 0.9 0.00 0.30 0.00 94 1012.4
20260507103042 32 0 0.0 0.0 0.00 0.30 0.00 94 1012.3
20260507102530 32 0 0.0 0.0 0.00 0.30 0.00 94 1012.3
20260507102028 32 0 0.0 0.0 0.00 0.30 0.00 94 1012.2
20260507101601 32 0 0.0 0.9 0.00 0.30 0.00 94 1012.3
20260507101026 32 0 0.0 0.9 0.00 0.30 0.00 94 1012.1
20260507100526 32 238 0.0 0.9 0.00 0.30 0.00 94 1012.1
20260507100048 32 0 0.0 0.9 0.00 0.30 0.00 93 1012.2
20260507095532 32 0 0.0 0.9 0.00 0.36 0.00 93 1012.1
20260507095029 32 0 0.0 0.0 0.00 0.36 0.00 94 1012.0
20260507094556 32 0 0.0 0.0 0.00 0.36 0.00 94 1012.1
20260507094028 33 0 0.0 0.9 0.00 0.36 0.00 93 1012.0
20260507093526 33 0 0.0 0.9 0.00 0.36 0.00 93 1012.0
20260507093046 33 0 0.0 0.9 0.00 0.36 0.00 93 1012.0
20260507092532 33 238 0.0 0.9 0.00 0.36 0.00 93 1012.0
20260507092026 33 0 0.0 0.9 0.00 0.36 0.00 93 1012.1
20260507091555 34 0 0.0 0.9 0.00 0.36 0.00 93 1012.1
20260507091026 34 0 0.0 0.9 0.00 0.36 0.00 93 1012.2
20260507090525 34 0 0.0 0.9 0.00 0.36 0.00 93 1012.2
20260507085529 34 0 0.0 0.9 0.00 0.38 0.00 93 1012.3
20260507085026 35 0 0.0 0.9 0.00 0.38 0.00 93 1012.4
20260507084541 35 0 0.0 0.9 0.00 0.38 0.00 93 1012.3
20260507084030 35 0 0.0 0.9 0.00 0.38 0.00 93 1012.3
20260507083529 35 0 0.0 0.9 0.00 0.38 0.00 94 1012.4
20260507083048 35 0 0.0 0.9 0.00 0.38 0.00 93 1012.3
20260507082527 35 0 0.0 0.0 0.00 0.38 0.00 93 1012.4
20260507082026 35 0 0.0 1.7 0.00 0.38 0.00 93 1012.5
20260507081554 35 0 0.0 1.7 0.00 0.38 0.00 93 1012.4
20260507081026 35 0 0.0 1.7 0.00 0.38 0.00 93 1012.4
20260507080527 35 244 0.0 0.9 0.00 0.38 0.00 93 1012.4
20260507080044 35 244 0.0 0.9 0.00 0.38 0.00 92 1012.3
20260507075528 35 0 0.0 0.9 0.00 0.40 0.00 92 1012.4
20260507075026 35 0 0.0 0.9 0.00 0.40 0.00 92 1012.5
20260507074544 35 0 0.0 0.9 0.00 0.40 0.00 92 1012.4
20260507074027 36 0 0.0 0.0 0.00 0.40 0.00 92 1012.4
20260507073528 36 0 0.0 0.9 0.00 0.40 0.00 91 1012.4
20260507073056 36 0 0.0 0.9 0.00 0.40 0.00 91 1012.4
20260507072526 37 0 0.0 0.0 0.00 0.40 0.00 91 1012.4
20260507072028 37 0 0.0 0.0 0.00 0.40 0.00 92 1012.5
20260507071543 38 0 0.0 0.0 0.00 0.40 0.00 92 1012.3
20260507071029 38 0 0.0 0.9 0.00 0.40 0.00 92 1012.3
20260507070529 38 0 0.0 0.9 0.00 0.40 0.00 92 1012.3
20260507070110 38 0 0.0 0.9 0.00 0.40 0.00 92 1012.2
20260507065528 39 0 0.0 0.9 0.00 0.40 0.00 92 1012.3
20260507065029 39 0 0.0 0.0 0.00 0.40 0.00 92 1012.4
20260507064543 39 0 0.0 0.0 0.00 0.40 0.00 93 1012.5
20260507064029 39 0 0.0 0.0 0.00 0.40 0.00 93 1012.5
20260507063529 39 0 0.0 0.0 0.00 0.40 0.00 93 1012.5
20260507063047 39 0 0.0 0.0 0.00 0.40 0.00 93 1012.6
20260507062526 39 0 0.0 0.0 0.00 0.40 0.00 93 1012.7
20260507062026 39 0 0.0 0.0 0.00 0.40 0.00 93 1012.8
20260507061547 39 0 0.0 0.0 0.00 0.40 0.00 92 1012.6
20260507061026 39 0 0.0 0.0 0.00 0.40 0.00 92 1012.7
20260507060528 39 0 0.0 0.9 0.00 0.40 0.00 92 1012.6
20260507060047 39 0 0.0 0.9 0.00 0.40 0.00 92 1012.5
20260507055526 39 0 0.0 0.9 0.00 0.40 0.00 92 1012.7
20260507055029 39 0 0.0 0.9 0.00 0.40 0.00 92 1012.5
20260507054550 39 0 0.0 1.7 0.00 0.40 0.00 92 1012.7
20260507054028 39 0 0.0 1.7 0.00 0.40 0.00 92 1013.0
20260507053526 39 226 0.0 1.7 0.00 0.40 0.00 92 1012.9
20260507053044 39 0 0.0 0.9 0.00 0.40 0.00 92 1012.7
20260507052529 39 0 0.0 0.9 0.00 0.40 0.00 92 1012.6
20260507052028 39 0 0.0 0.9 0.00 0.40 0.00 92 1012.4
20260507051539 40 0 0.0 3.5 0.00 0.40 0.00 92 1012.3
20260507051028 40 0 0.0 3.5 0.00 0.40 0.00 92 1012.3
20260507050528 40 0 0.0 3.5 0.00 0.40 0.00 92 1012.4
20260507050048 40 0 0.0 3.5 0.00 0.40 0.00 92 1012.7
20260507045533 40 290 0.0 2.6 0.00 0.40 0.00 93 1012.9
20260507045032 41 0 0.0 3.5 0.00 0.40 0.00 93 1012.8
20260507044549 41 0 0.0 3.5 0.00 0.40 0.00 93 1012.9
20260507044028 41 286 0.9 6.1 0.00 0.40 0.00 93 1012.9
20260507043528 41 283 0.0 6.1 0.00 0.40 0.00 94 1012.8
20260507043043 42 0 0.9 6.1 0.00 0.40 0.00 93 1012.7
20260507042528 42 282 0.0 2.6 0.00 0.40 0.00 94 1012.7
20260507042028 42 0 0.0 2.6 0.00 0.40 0.00 94 1012.6
20260507041542 43 229 0.0 2.6 0.00 0.40 0.00 94 1012.8
20260507041029 43 242 0.0 2.6 0.00 0.40 0.00 95 1012.6
20260507040528 43 0 0.0 1.7 0.00 0.40 0.00 95 1012.4
20260507040041 43 0 0.0 1.7 0.00 0.40 0.00 95 1012.3
20260507035529 43 0 0.0 0.9 0.00 0.40 0.40 95 1012.6
20260507035029 43 0 0.0 1.7 0.00 0.40 0.40 95 1012.3
20260507034538 43 0 0.0 1.7 0.00 0.40 0.40 95 1012.0
20260507034029 43 0 0.0 0.0 0.00 0.40 0.40 94 1012.1
20260507033528 43 0 0.0 0.0 0.00 0.40 0.40 95 1012.3
20260507033047 43 0 0.0 0.9 0.00 0.40 0.40 95 1012.3
20260507032528 43 0 0.0 0.9 0.00 0.40 0.40 94 1012.1
20260507032026 43 0 0.0 0.9 0.00 0.40 0.40 94 1012.1
20260507031544 44 0 0.0 1.7 0.00 0.40 0.40 95 1012.0
20260507031029 44 0 0.0 1.7 0.00 0.40 0.40 95 1012.0
20260507030527 44 188 0.0 1.7 0.00 0.40 0.40 95 1012.0
20260507030043 44 0 0.0 1.7 0.00 0.40 0.40 95 1011.6
20260507025528 44 188 0.0 1.7 0.00 0.40 0.40 95 1011.5
20260507025030 44 0 0.0 1.7 0.00 0.40 0.40 95 1012.0
20260507024538 44 0 0.0 1.7 0.00 0.40 0.40 95 1012.1
20260507024029 44 0 0.0 1.7 0.00 0.40 0.40 95 1011.9
20260507023531 44 0 0.0 1.7 0.00 0.40 0.40 95 1012.0
20260507023048 44 0 0.0 0.9 0.00 0.40 0.40 95 1011.9
20260507022530 44 0 0.0 0.9 0.00 0.40 0.40 94 1011.9
20260507022028 44 0 0.0 0.9 0.00 0.40 0.40 94 1012.1
20260507021602 44 0 0.0 0.9 0.00 0.40 0.40 95 1012.1
20260507021027 44 0 0.0 0.0 0.00 0.40 0.40 95 1012.0
20260507020528 44 0 0.0 0.0 0.00 0.40 0.40 94 1012.3
20260507020048 44 0 0.0 0.0 0.00 0.40 0.40 94 1012.3
20260507015525 44 0 0.0 0.0 0.00 0.40 0.40 94 1012.3
20260507015028 44 0 0.0 0.0 0.00 0.40 0.40 94 1012.0
20260507014552 44 0 0.0 1.7 0.00 0.40 0.40 94 1012.3
20260507014028 44 0 0.0 1.7 0.00 0.40 0.40 94 1012.1
20260507013528 44 330 0.0 1.7 0.00 0.40 0.40 94 1012.0
20260507013053 44 0 0.0 1.7 0.00 0.40 0.40 94 1012.1
20260507012529 44 0 0.0 1.7 0.00 0.40 0.40 94 1012.5
20260507012031 44 0 0.0 0.9 0.00 0.40 0.40 94 1012.0
20260507011548 44 352 0.0 0.9 0.00 0.40 0.40 94 1012.0
20260507011027 44 0 0.0 0.9 0.00 0.40 0.40 94 1012.3
20260507010529 44 0 0.0 0.9 0.00 0.40 0.40 94 1012.0
20260507010100 45 0 0.0 1.7 0.00 0.40 0.40 94 1012.4
20260507005833 45 0 0.0 1.7 0.00 0.40 0.40 93 1012.2
20260507000048 46 0 0.0 0.9 0.01 0.40 0.40 93 1011.2
20260506235528 46 0 0.0 0.9 0.01 0.40 0.40 93 1011.2
20260506235027 46 0 0.0 1.7 0.01 0.40 0.40 93 1011.2
20260506234548 46 0 0.0 1.7 0.01 0.40 0.40 93 1011.2
20260506234027 46 0 0.0 1.7 0.01 0.40 0.40 93 1011.2
20260506233528 46 0 0.0 1.7 0.01 0.40 0.40 93 1011.2
20260506233049 46 352 0.0 2.6 0.00 0.39 0.39 93 1011.2
20260506232528 46 0 0.0 2.6 0.00 0.39 0.39 93 1011.2
20260506232027 46 0 0.0 2.6 0.00 0.39 0.39 93 1011.1
20260506231546 47 0 0.0 2.6 0.00 0.39 0.39 93 1011.0
20260506231030 47 0 0.0 0.9 0.00 0.39 0.39 93 1010.7
20260506230528 47 0 0.0 0.9 0.00 0.39 0.39 93 1011.0
20260506230044 47 0 0.0 0.9 0.00 0.39 0.39 93 1011.0
20260506225530 47 0 0.0 0.9 0.00 0.39 0.39 93 1010.9
20260506225029 47 0 0.0 0.9 0.00 0.39 0.39 93 1011.0
20260506224542 47 0 0.0 0.0 0.00 0.39 0.39 93 1010.9
20260506224028 47 0 0.0 0.0 0.00 0.39 0.39 92 1010.8
20260506223527 47 0 0.0 0.0 0.00 0.39 0.39 92 1010.6
20260506223047 47 0 0.0 1.7 0.00 0.39 0.39 92 1010.7
20260506222529 47 0 0.0 1.7 0.00 0.39 0.39 92 1010.9
20260506222029 47 0 0.0 0.0 0.00 0.39 0.39 92 1010.7
20260506221548 47 0 0.0 0.0 0.00 0.39 0.39 92 1010.6
20260506221028 47 0 0.0 0.9 0.00 0.39 0.39 92 1010.5
20260506220528 47 0 0.0 0.9 0.00 0.39 0.39 92 1010.6
20260506220051 47 0 0.0 2.6 0.00 0.39 0.39 92 1010.7
20260506215528 47 0 0.0 2.6 0.00 0.39 0.39 92 1010.5
20260506215028 47 234 0.9 2.6 0.00 0.39 0.39 92 1010.4
20260506214547 47 0 0.0 2.6 0.00 0.39 0.39 92 1010.3
20260506214029 47 290 0.0 2.6 0.00 0.39 0.39 92 1010.4
20260506213528 47 0 0.0 1.7 0.00 0.39 0.39 92 1010.2
20260506213042 47 0 0.0 3.5 0.00 0.39 0.39 92 1010.3
20260506212528 47 0 0.0 3.5 0.00 0.39 0.39 92 1010.1
20260506212028 48 355 0.9 2.6 0.00 0.39 0.39 92 1010.0
20260506211541 48 0 0.0 2.6 0.00 0.39 0.39 92 1009.9
20260506211028 48 338 0.0 3.5 0.00 0.39 0.39 92 1009.9
20260506210529 48 217 0.0 3.5 0.00 0.39 0.39 93 1009.9
20260506210044 48 325 0.0 2.6 0.00 0.39 0.39 92 1009.8
20260506205527 47 308 0.0 2.6 0.00 0.42 0.39 93 1010.0
20260506205027 47 298 0.9 2.6 0.00 0.42 0.39 92 1009.9
20260506204541 47 0 0.0 2.6 0.00 0.42 0.39 93 1009.7
20260506204029 47 0 0.9 3.5 0.00 0.42 0.39 92 1009.9
20260506203528 47 0 0.9 3.5 0.00 0.42 0.39 92 1009.8
20260506203051 48 0 0.0 1.7 0.00 0.42 0.39 92 1009.8
20260506202529 48 0 0.0 3.5 0.00 0.42 0.39 93 1009.7
20260506202029 48 0 0.0 3.5 0.00 0.42 0.39 92 1009.6
20260506201606 48 40 0.9 4.3 0.00 0.42 0.39 92 1009.6
20260506201028 48 0 0.0 4.3 0.00 0.42 0.39 93 1009.5
20260506200528 48 324 0.0 6.1 0.00 0.42 0.39 93 1009.2
20260506200040 48 159 0.9 6.1 0.00 0.42 0.39 93 1009.3
20260506195528 48 344 0.9 6.1 0.00 0.42 0.39 93 1009.4
20260506195031 48 183 0.9 3.5 0.00 0.42 0.39 93 1009.4
20260506194549 48 329 0.9 4.3 0.00 0.42 0.39 93 1009.4
20260506194027 48 0 0.9 4.3 0.00 0.42 0.39 93 1009.4
20260506193527 48 0 0.0 3.5 0.00 0.42 0.39 93 1009.2
20260506193043 47 0 0.0 3.5 0.00 0.42 0.39 93 1009.2
20260506192527 48 355 0.9 4.3 0.00 0.42 0.39 94 1009.1
20260506192027 48 296 0.0 4.3 0.00 0.42 0.39 94 1009.0
20260506191547 48 5 0.0 3.5 0.00 0.42 0.39 94 1008.9
20260506191027 47 0 0.9 3.5 0.00 0.42 0.39 94 1008.9
20260506190528 47 0 0.0 6.1 0.00 0.42 0.39 94 1009.0
20260506190047 47 273 0.0 6.1 0.00 0.42 0.39 94 1009.0
20260506185528 47 259 0.9 6.1 0.00 0.47 0.39 94 1009.0
20260506185027 47 0 0.9 4.3 0.01 0.47 0.39 94 1008.8
20260506184551 46 273 0.0 3.5 0.01 0.47 0.39 94 1009.1
20260506184029 46 234 0.9 3.5 0.01 0.47 0.39 94 1009.1
20260506183527 46 0 0.9 5.2 0.01 0.47 0.39 94 1009.0
20260506183041 46 266 0.9 5.2 0.01 0.47 0.39 93 1008.8
20260506182526 46 272 0.9 7.8 0.01 0.47 0.39 93 1008.8
20260506182030 46 251 0.9 7.8 0.01 0.47 0.39 93 1008.9
20260506181549 46 234 1.7 7.8 0.02 0.47 0.39 93 1008.8
20260506181030 46 284 0.9 5.2 0.02 0.47 0.39 93 1008.7
20260506180528 46 246 0.9 7.0 0.02 0.47 0.39 93 1008.6
20260506180049 46 0 0.9 7.0 0.02 0.47 0.39 93 1008.5
20260506175530 46 247 1.7 7.0 0.03 0.47 0.39 93 1008.6
20260506175031 46 0 0.9 6.1 0.02 0.46 0.38 93 1008.4
20260506174545 46 250 0.9 6.1 0.03 0.46 0.38 93 1008.4
20260506174030 46 0 0.9 2.6 0.04 0.46 0.38 93 1008.2
20260506173529 46 0 0.0 1.7 0.05 0.46 0.38 92 1008.0
20260506173105 46 0 0.0 2.6 0.05 0.46 0.38 92 1008.0
20260506172527 46 5 0.0 2.6 0.05 0.46 0.38 91 1008.1
20260506172031 46 41 0.9 2.6 0.05 0.46 0.38 91 1007.9
20260506171553 46 99 0.0 1.7 0.04 0.45 0.37 91 1008.0
20260506171027 46 99 0.0 7.0 0.04 0.45 0.37 90 1007.9
20260506170527 46 258 0.9 7.0 0.04 0.45 0.37 90 1008.1
20260506170044 47 292 0.9 4.3 0.04 0.45 0.37 90 1008.1
20260506165531 47 251 0.9 6.1 0.03 0.44 0.36 89 1008.1
20260506165030 48 242 1.7 6.1 0.03 0.44 0.36 88 1007.9
20260506164547 48 232 0.9 2.6 0.02 0.43 0.35 88 1008.0
20260506164028 49 0 0.9 2.6 0.01 0.42 0.34 87 1007.7
20260506163530 49 0 0.9 2.6 0.00 0.41 0.33 87 1007.7
20260506163059 50 0 0.0 4.3 0.00 0.41 0.33 86 1007.7
20260506162527 51 0 0.0 4.3 0.00 0.41 0.33 86 1007.6
20260506162030 52 324 0.9 7.0 0.00 0.41 0.33 86 1007.6
20260506161548 53 0 1.7 7.8 0.00 0.41 0.33 87 1007.3
20260506161027 54 264 0.0 7.8 0.00 0.41 0.33 89 1007.3
20260506160532 56 28 2.6 7.8 0.00 0.41 0.33 91 1007.1
20260506160046 56 225 0.9 5.2 0.00 0.41 0.33 93 1006.9
20260506155529 56 213 0.9 5.2 0.00 0.41 0.33 93 1006.8
20260506155029 56 192 1.7 5.2 0.00 0.41 0.33 93 1006.7
20260506154555 56 214 1.7 5.2 0.00 0.41 0.33 93 1006.7
20260506154029 56 133 1.7 7.0 0.00 0.41 0.33 93 1006.6
20260506153526 56 0 1.7 7.0 0.00 0.41 0.33 93 1006.4
20260506153048 56 161 2.6 7.0 0.00 0.41 0.33 93 1006.4
20260506152530 56 171 1.7 7.0 0.00 0.41 0.33 93 1006.5
20260506152029 56 190 1.7 7.0 0.00 0.41 0.33 93 1006.4
20260506151541 55 144 2.6 7.8 0.00 0.41 0.33 93 1006.5
20260506151026 55 185 0.9 7.8 0.00 0.41 0.33 93 1006.5
20260506150527 55 214 2.6 7.0 0.00 0.41 0.33 93 1006.6
20260506150048 55 186 1.7 7.0 0.00 0.41 0.33 93 1006.6
20260506145527 55 151 1.7 7.8 0.00 0.41 0.33 93 1006.6
20260506145029 55 156 1.7 7.8 0.01 0.41 0.33 93 1006.7
20260506144548 55 143 2.6 7.8 0.01 0.41 0.33 93 1006.7
20260506144026 55 132 1.7 6.1 0.01 0.41 0.33 93 1006.8
20260506143528 55 148 1.7 8.7 0.01 0.41 0.33 93 1006.8
20260506143045 55 140 3.5 8.7 0.02 0.41 0.33 93 1006.7
20260506142528 55 165 3.5 8.7 0.02 0.41 0.33 93 1006.4
20260506142027 55 173 3.5 10.4 0.03 0.41 0.33 93 1006.4
20260506141549 55 209 4.3 10.4 0.04 0.41 0.33 93 1006.2
20260506141027 55 178 2.6 7.0 0.04 0.41 0.33 93 1006.5
20260506140530 55 182 2.6 7.8 0.05 0.41 0.33 94 1006.4
20260506140052 55 162 2.6 7.8 0.06 0.41 0.33 94 1006.2
20260506135526 55 131 2.6 7.8 0.05 0.40 0.32 94 1006.1
20260506135029 55 88 2.6 7.0 0.06 0.40 0.32 94 1006.2
20260506134541 55 135 1.7 6.1 0.07 0.40 0.32 94 1006.4
20260506134031 55 229 0.9 6.1 0.08 0.40 0.32 94 1006.6
20260506133528 55 155 1.7 6.1 0.08 0.39 0.31 94 1006.6
20260506133045 55 174 2.6 6.1 0.08 0.39 0.31 94 1006.5
20260506132527 55 140 0.9 4.3 0.09 0.39 0.31 94 1006.5
20260506132026 55 158 0.9 4.3 0.09 0.38 0.30 94 1006.6
20260506131544 55 175 0.9 4.3 0.09 0.37 0.29 94 1006.6
20260506131028 55 208 1.7 4.3 0.10 0.37 0.29 93 1006.7
20260506130529 55 115 1.7 4.3 0.09 0.36 0.28 94 1006.7
20260506130052 55 133 1.7 6.1 0.08 0.35 0.27 94 1006.7
20260506125527 55 157 1.7 6.1 0.09 0.35 0.27 93 1006.6
20260506125027 55 118 1.7 8.7 0.08 0.34 0.26 93 1006.5
20260506124545 55 140 1.7 9.6 0.08 0.33 0.25 93 1006.9
20260506124028 55 195 4.3 9.6 0.07 0.32 0.24 93 1006.9
20260506123527 55 163 2.6 10.4 0.07 0.31 0.23 93 1007.0
20260506123042 55 175 3.5 10.4 0.06 0.30 0.22 93 1007.0
20260506122527 55 170 3.5 9.6 0.07 0.30 0.22 93 1007.0
20260506122026 55 165 3.5 9.6 0.06 0.29 0.21 93 1007.3
20260506121541 55 115 2.6 8.7 0.06 0.28 0.20 93 1007.3
20260506121028 55 207 2.6 8.7 0.05 0.27 0.19 93 1007.3
20260506120528 55 140 2.6 7.8 0.06 0.27 0.19 93 1007.3
20260506120037 55 186 2.6 8.7 0.06 0.27 0.19 93 1007.2
20260506115528 55 145 2.6 8.7 0.06 0.26 0.18 92 1006.9
20260506115027 55 156 4.3 10.4 0.06 0.26 0.18 92 1006.8
20260506114558 55 174 1.7 10.4 0.05 0.25 0.17 92 1006.7
20260506114027 55 172 3.5 10.4 0.06 0.25 0.17 93 1006.8
20260506113526 55 136 4.3 10.4 0.05 0.24 0.16 93 1006.7
20260506113046 55 137 3.5 8.7 0.05 0.24 0.16 93 1006.6
20260506112528 55 124 4.3 8.7 0.05 0.23 0.15 93 1006.5
20260506112027 55 142 3.5 7.0 0.05 0.23 0.15 93 1006.6
20260506111546 55 179 2.6 8.7 0.04 0.22 0.14 92 1006.6
20260506111026 55 128 2.6 8.7 0.04 0.22 0.14 93 1006.5
20260506110527 55 150 3.5 8.7 0.03 0.21 0.13 92 1006.6
20260506110042 55 0 2.6 8.7 0.03 0.21 0.13 92 1006.6
20260506105528 55 173 3.5 8.7 0.02 0.20 0.12 92 1006.7